TimeEST,TemperatureF,Dew PointF,Humidity,Sea Level PressureIn,VisibilityMPH,Wind Direction,Wind SpeedMPH,Gust SpeedMPH,PrecipitationIn,Events,Conditions,WindDirDegrees,DateUTC
12:14 AM,44.6,39.2,81,29.87,10.0,West,12.7,-,N/A,,Overcast,270,2011-12-22 05:14:00
12:38 AM,42.8,39.2,87,29.88,3.0,WSW,9.2,-,0.00,,Light Drizzle,250,2011-12-22 05:38:00
12:54 AM,43.0,39.9,89,29.89,4.0,West,13.8,-,0.00,,Light Drizzle,260,2011-12-22 05:54:00
1:54 AM,43.0,39.9,89,29.91,10.0,West,13.8,-,0.00,,Overcast,260,2011-12-22 06:54:00
2:18 AM,42.8,39.2,87,29.91,10.0,West,10.4,-,N/A,,Overcast,270,2011-12-22 07:18:00
2:54 AM,43.0,39.0,86,29.94,10.0,West,9.2,-,N/A,,Overcast,270,2011-12-22 07:54:00
3:54 AM,42.1,37.9,85,29.94,10.0,West,8.1,-,N/A,,Overcast,260,2011-12-22 08:54:00
4:54 AM,42.1,37.9,85,29.98,10.0,WSW,8.1,-,N/A,,Overcast,250,2011-12-22 09:54:00
5:54 AM,42.1,37.0,82,30.00,10.0,West,6.9,-,N/A,,Overcast,270,2011-12-22 10:54:00
6:01 AM,42.8,37.4,81,29.99,10.0,West,9.2,-,N/A,,Overcast,270,2011-12-22 11:01:00
6:26 AM,41.0,37.4,87,29.99,10.0,WNW,5.8,-,0.00,Rain,Light Rain,290,2011-12-22 11:26:00
6:54 AM,41.0,37.0,86,30.02,10.0,West,6.9,-,0.00,,Overcast,260,2011-12-22 11:54:00
7:54 AM,41.0,37.0,86,30.04,10.0,WSW,6.9,-,N/A,,Overcast,250,2011-12-22 12:54:00
8:45 AM,41.0,37.4,87,30.05,8.0,WSW,6.9,-,0.00,Rain,Light Rain,250,2011-12-22 13:45:00
8:54 AM,41.0,37.0,86,30.06,10.0,WSW,8.1,-,0.00,Rain,Light Rain,240,2011-12-22 13:54:00
9:54 AM,41.0,36.0,82,30.06,9.0,West,8.1,-,0.00,Rain,Light Rain,270,2011-12-22 14:54:00
10:54 AM,41.0,35.6,81,30.07,10.0,West,8.1,-,N/A,,Overcast,270,2011-12-22 15:54:00
11:54 AM,41.0,35.1,79,30.06,10.0,West,4.6,-,N/A,,Overcast,270,2011-12-22 16:54:00
12:54 PM,42.1,36.0,79,30.05,10.0,SW,8.1,-,N/A,,Overcast,220,2011-12-22 17:54:00
1:54 PM,42.1,35.1,76,30.05,10.0,West,6.9,-,N/A,,Overcast,260,2011-12-22 18:54:00
2:54 PM,42.1,36.0,79,30.06,6.0,WSW,5.8,-,0.00,,Light Drizzle,250,2011-12-22 19:54:00
3:36 PM,41.0,35.6,81,30.05,8.0,SW,5.8,-,0.00,,Overcast,230,2011-12-22 20:36:00
3:54 PM,41.0,35.6,81,30.05,8.0,SW,5.8,-,N/A,,Overcast,230,2011-12-22 20:54:00
4:17 PM,41.0,37.4,87,30.05,9.0,SSW,5.8,-,0.00,,Light Drizzle,200,2011-12-22 21:17:00
4:47 PM,39.2,37.4,93,30.06,9.0,SSW,6.9,-,0.00,,Overcast,210,2011-12-22 21:47:00
4:54 PM,39.9,37.0,89,30.08,9.0,SSW,8.1,-,0.00,,Overcast,210,2011-12-22 21:54:00
5:54 PM,39.9,37.9,93,30.06,7.0,SW,4.6,-,0.00,,Light Drizzle,230,2011-12-22 22:54:00
6:54 PM,39.9,37.9,93,30.04,6.0,Calm,Calm,-,0.00,,Overcast,0,2011-12-22 23:54:00
7:41 PM,39.2,37.4,93,30.01,4.0,South,4.6,-,N/A,,Overcast,180,2011-12-23 00:41:00
7:54 PM,39.9,37.9,93,30.03,4.0,South,3.5,-,N/A,,Overcast,180,2011-12-23 00:54:00
8:41 PM,39.2,37.4,93,30.01,4.0,South,4.6,-,N/A,,Overcast,190,2011-12-23 01:41:00
8:54 PM,39.2,37.4,93,30.01,4.0,SSW,3.5,-,N/A,Rain,Light Rain,200,2011-12-23 01:54:00
9:50 PM,39.2,37.4,93,30.01,4.0,SSW,3.5,-,0.03,Rain,Light Rain,210,2011-12-23 02:50:00
9:54 PM,39.0,36.0,89,30.03,5.0,South,4.6,-,0.03,Rain,Light Rain,180,2011-12-23 02:54:00
10:54 PM,37.9,35.1,89,30.03,5.0,West,4.6,-,0.06,Rain,Light Rain,270,2011-12-23 03:54:00
11:01 PM,37.4,35.6,93,30.01,4.0,West,4.6,-,0.01,Rain,Light Rain,270,2011-12-23 04:01:00
11:50 PM,37.4,33.8,87,29.99,4.0,North,6.9,-,0.05,Rain,Light Rain,360,2011-12-23 04:50:00
11:54 PM,37.0,34.0,89,30.01,5.0,North,6.9,-,0.05,Rain,Light Rain,360,2011-12-23 04:54:00